This demonstration page uses our WeatherBlox Daily Observations layout. Learn more.

Left ArrowRight Arrow

41.86663, -103.66717

Hourly Observations for March 2, 2018

Temp ( °F °C ) Dew Point ( °F °C ) Humidity (%) Winds ( mph kmh ) Pressure ( in mb ) Visibility ( mi km ) Precip ( " mm )
12:53 am 00:53 Clear 32 undefined 23 -5 69 69 E 9 15 29.98 1015 10 16 N/A
1:53 am 01:53 Clear 31 -0.6 23 -5 72 72 ESE 10 17 29.96 1015 10 16 N/A
2:53 am 02:53 Clear 28 -2.2 22 -5.6 78 78 ESE 8 13 29.95 1014 10 16 N/A
3:53 am 03:53 Clear 26 -3.3 22 -5.6 84 84 E 8 13 29.95 1014 10 16 N/A
4:53 am 04:53 Clear 26 -3.3 22 -5.6 84 84 E 7 11 29.98 1015 10 16 N/A
5:53 am 05:53 Clear 25 -3.9 21 -6.1 85 85 ESE 7 11 30.00 1016 10 16 N/A
6:53 am 06:53 Sunny 26 -3.3 21 -6.1 81 81 SE 9 15 30.00 1016 10 16 N/A
7:53 am 07:53 Sunny 31 -0.6 23 -5 72 72 ESE 10 17 29.97 1015 10 16 N/A
8:53 am 08:53 Sunny 36 2.2 24 -4.4 62 62 E 10 17 29.96 1015 10 16 N/A
9:53 am 09:53 Sunny 42 5.6 26 -3.3 53 53 E 13 20 29.93 1014 10 16 N/A
10:53 am 10:53 Sunny 51 10.6 28 -2.2 41 41 ESE 12 19 29.89 1012 10 16 N/A
11:53 am 11:53 Sunny 59 15 29 -1.7 32 32 SE 16 26 29.85 1011 10 16 N/A
12:53 pm 12:53 Sunny 63 17.2 21 -6.1 20 20 SSE 20 31 29.80 1009 10 16 N/A
1:53 pm 13:53 Sunny 65 18.3 20 -6.7 18 18 S 15 24 29.77 1008 10 16 N/A
2:53 pm 14:53 Sunny 67 19.4 21 -6.1 17 17 SSE 18 30 29.75 1007 10 16 N/A
3:53 pm 15:53 Sunny 63 17.2 20 -6.7 19 19 SSE 16 26 29.75 1008 10 16 N/A
4:53 pm 16:53 Sunny 63 17.2 23 -5 22 22 SSE 17 28 29.74 1007 10 16 N/A
5:53 pm 17:53 Clear 56 13.3 24 -4.4 29 29 SSE 13 20 29.78 1009 10 16 N/A
6:53 pm 18:53 Clear 47 8.3 27 -2.8 46 46 E 13 20 29.86 1011 10 16 N/A
7:53 pm 19:53 Clear 40 4.4 29 -1.7 65 65 E 8 13 29.87 1012 10 16 N/A
8:53 pm 20:53 Clear 39 3.9 28 -2.2 65 65 E 10 17 29.86 1011 10 16 N/A
9:53 pm 21:53 Clear 35 1.7 27 -2.8 72 72 NNE 8 13 29.86 1011 10 16 N/A
10:53 pm 22:53 Clear 33 0.6 26 -3.3 75 75 N 5 7 29.86 1011 10 16 N/A
11:53 pm 23:53 Clear 30 -1.1 25 -3.9 82 82 N N/A 29.85 1011 10 16 N/A

Powered by AerisWeather